Regional Weather Roundup
Issued by NWS

Home | Current Version | Previous Version | Text Only | Print | Product List | Glossary On
Versions: 1 2 3 4 5 6 7 8 9 10 11 12 13 14 15 16 17 18 19 20 21 22 23 24 25 26 27 28 29 30 31 32 33 34 35 36 37 38 39 40 41 42 43 44 45 46 47 48 49 50
000
ASUS44 KLUB 261101
RWRTX
WEST TEXAS WEATHER ROUNDUP
NATIONAL WEATHER SERVICE LUBBOCK TX
600 AM CDT TUE MAY 26 2015

NOTE: "FAIR" INDICATES FEW OR NO CLOUDS BELOW 12,000 FEET WITH NO
SIGNIFICANT WEATHER AND/OR OBSTRUCTIONS TO VISIBILITY.

TXZ004-006>008-010-012-014-016-OKZ002-261200-
TEXAS PANHANDLE/OKLAHOMA PANHANDLE

CITY           SKY/WX    TMP DP  RH WIND       PRES   REMARKS
AMARILLO       CLEAR     51  48  89 SE14      29.93R
BORGER         PTCLDY    53  49  86 NE6       29.93R
CANADIAN       PTCLDY    51  50  97 CALM      29.91S
DALHART        MOCLDY    53  48  83 N7        29.97R
DUMAS          FAIR      47  46  93 N5        29.95R
GUYMON         CLEAR     53  50  89 W5        29.93R
$$

TXZ026-029-035-045-048-261200-
SOUTHERN PANHANDLE/SOUTH PLAINS/ROLLING PLAINS

CITY           SKY/WX    TMP DP  RH WIND       PRES   REMARKS
CHILDRESS      MOCLDY    58  53  84 SE10      29.92R
LUBBOCK        PTCLDY    55  52  89 SW8       29.94R
$$

TXZ052-054-060>062-072-078-127-140-154-169-261200-
PERMIAN BASIN/CONCHO VALLEY/BIG COUNTRY/EDWARDS PLATEAU

CITY           SKY/WX    TMP DP  RH WIND       PRES   REMARKS
ABILENE        CLEAR     62  55  77 S8        29.91R
JUNCTION       CLOUDY    66  65  96 CALM      29.96R
MIDLAND        CLEAR     60  55  83 NW6       29.96R
ODESSA         CLEAR     63  54  72 W3        29.97R
SAN ANGELO     CLEAR     67  64  90 S12       29.92R
SWEETWATER     CLEAR     62  59  91 S13       29.96R
WINK           CLEAR     54  42  64 CALM      29.96R
$$

TXZ055-058-074-075-080-082-261200-
FAR WEST/SOUTHWEST MOUNTAINS/TRANS PECOS

CITY           SKY/WX    TMP DP  RH WIND       PRES   REMARKS
DRYDEN           N/A     67  61  81 NW7       29.93R
EL PASO        CLEAR     64  38  38 N6        30.03R
FORT STOCKTON  CLEAR     61  46  57 S10       29.96R
GUADALUPE PASS CLEAR     58  27  30 S8        30.10R
MARFA          CLEAR     45  34  65 NW10      30.09R
$$

TXZ014-016-019-021>030-083-261200
TEXAS TECH WEST TEXAS MESONET/TEXAS PANHANDLE/NORTHERN SOUTH PLAINS

CITY           SKY/WX    TMP DP  RH WIND       PRES   REMARKS
ABERNATHY 5ENE   N/A     54  51  90 SW5       29.96R
AMARILLO 9NNE    N/A     52  49  90 SE5       29.92R
AMARILLO 7SSE    N/A     50  49  97 SE12      29.94R
AMHERST 1NE      N/A     54  46  76 S7        29.95S
BOOTLEG 11WNW    N/A     50  48  94 NW10      29.97R
CANADIAN 6E      N/A     52  49  91 CALM      29.91R
CAPROCK CYN SP   N/A     52  51  96 SW6       29.93R
CHILDRESS 2NNE   N/A     56  53  89 SE8       29.91S
CLARENDON 2WSW   N/A     53  49  88 CALM      29.94R
CLAUDE 12SW      N/A     50  49  95 E6        29.93S
DIMMITT 2NE      N/A     50  46  87 S7        29.94R
FLOYDADA 2NNE    N/A     55  53  92 S8        29.93R
FRIONA 2NE       N/A     51  46  85 W8        29.95R
GOODLETT 3W      N/A     55  52  88 S5        29.91R
HART 3N          N/A     51  46  83 S7        29.94S
HEREFORD 2NW     N/A     51  46  84 W5        29.93R
MCLEAN 1E        N/A     55  51  85 S6        29.92R
MEMPHIS 1NE      N/A     52  51  95 CALM      29.93R
MULESHOE 2SSW    N/A     50  45  83 SW8       29.95R
OLTON 6S         N/A     53  47  80 SW9       29.94S
PALO DURO SP     N/A     51  50  93 SE3       29.95R
PAMPA 2E         N/A     53  49  87 SE8       29.93R
PLAINVIEW 1S     N/A     55  52  89 S7        29.93R
SILVERTON 7ESE   N/A     53  50  92 S5        29.93S
TULIA 2ENE       N/A     54  50  84 SW10      29.93R
UMBARGER 3NNE    N/A     50  48  92 SW5       29.93R
$$

TXZ033>036-039>041-045>048-261200
TEXAS TECH WEST TEXAS MESONET/SOUTH PLAINS

CITY           SKY/WX    TMP DP  RH WIND       PRES   REMARKS
AIKEN 3WSW       N/A     54  52  93 SW9       29.95R
ANDREWS 2NE      N/A     57  47  67 SW7       29.98R
ANTON 6SSW       N/A     55  51  86 SW8       29.95S
BROWNFIELD 2S    N/A     54  51  89 W6        29.96R
DENVR CTY 7WNW   N/A     52  45  75 W5        29.98R
GAIL 2ESE        N/A     55  54  95 W5        29.93R
LAMESA 2SE       N/A     58  55  91 SW9       29.96R
LEVELLAND 4S     N/A     54  47  77 SW8       29.96S
LUBBOCK 3WNW     N/A     58  53  83 SW6       29.95R
MORTON 1ENE      N/A     55  44  66 SW8       29.96S
ODONNELL 1N      N/A     58  55  88 S8        29.95R
PLAINS 3N        N/A     51  44  77 SW5       29.98R
RALLS 1SE        N/A    N/A N/A N/A S10       29.94S
REESE CENTER     N/A     53  50  90 SW7       29.95S
SEAGRAVES 1SW    N/A     52  49  89 W3        29.97R
SEMINOLE 2NNE    N/A     53  47  81 W5        29.96S
SLATON 2NE       N/A     60  55  85 S14       29.93S
SNYDER 3E        N/A     58  57  96 S7        29.92R
SUNDOWN 8SW      N/A     49  44  82 SW7       29.97S
TAHOKA 3NNE      N/A     58  55  90 S8        29.94R
WOLFFORTH 6SSW   N/A     56  56  98 SW7       29.95R
$$

TXZ031-032-036>038-042>044-261200-
TEXAS TECH WEST TEXAS MESONET/ROLLING PLAINS

CITY           SKY/WX    TMP DP  RH WIND       PRES   REMARKS
ASPERMONT 3NE    N/A     57  56  97 E6        29.93F
FLUVANNA 3WNW    N/A     55  53  93 SW3       29.93R
GUTHRIE 10WSW    N/A     57  56  96 E9        29.92R
HASKELL 1NW      N/A     60  58  95 E5        29.94R
JAYTON 1SSE      N/A     56  54  94 E6        29.92S
KNOX CITY 3NW    N/A     62  58  87 SE10      29.94S
LK A HENRY 1NW   N/A     56  55  94 SW2       29.91S
NORTHFIELD 1S    N/A     58  54  86 E5        29.91R
ODELL 4ENE       N/A     56  54  93 S5        29.93R
PADUCAH 10SW     N/A     56  54  93 SE8       29.91F
POST 1NE         N/A     61  55  80 S2        29.92R
RRING SPRGS 3N   N/A     55  53  96 SE3       29.93R
SEYMOUR 3NW      N/A     60  57  91 SE3       29.94R
SPUR 1W          N/A     53  51  94 W1        29.91R
WEINERT 2NNE     N/A     58  56  94 S3        29.95S
WHITE RVR 6NE    N/A     59  54  85 SW6       29.92R
$$

TXZ052-054-060>062-072-078-127-140-154-169-261200-
TEXAS TECH WEST TEXAS MESONET/PERMIAN BASIN/
CONCHO VALLEY/BIG COUNTRY/EDWARDS PLATEAU

CITY           SKY/WX    TMP DP  RH WIND       PRES   REMARKS
JUNCTION 1SSW    N/A     65  64  99 CALM      29.96S
MERTZON 3NNE     N/A     67  64  91 S9        29.94R
SAN ANGELO 7NW   N/A     61  58  91 SE3       29.93R
STRLNG CT 4WSW   N/A     60  56  87 N1        29.95R
ST LAWRNCE 5SW   N/A     60  58  92 S9        29.95R
SWEETWATR 11SW   N/A     61  58  88 SE12      29.94R
WALL 1E          N/A     69  64  82 S12       29.93R
$$

TXZ055-058-074-075-080-082-261200-
TEXAS TECH WEST TEXAS MESONET/FAR WEST/SOUTHWEST MOUNTAINS/TRANS PECOS

CITY           SKY/WX    TMP DP  RH WIND       PRES   REMARKS
PRSMN GAP BBNP   N/A     69  45  42 N7        29.96R
$$


USA.gov is the U.S. government's official web portal to all federal, state and local government web resources and services.